Year,Month,Day,Hour,Minute,Value (Times are PST for temperature in C)
2009,10,09,00,00,5.70
2009,10,09,00,01,5.70
2009,10,09,00,02,5.70
2009,10,09,00,03,5.70
2009,10,09,00,04,5.70
2009,10,09,00,05,5.70
2009,10,09,00,06,5.60
2009,10,09,00,07,5.60
2009,10,09,00,08,5.60
2009,10,09,00,09,5.50
2009,10,09,00,10,5.50
2009,10,09,00,11,5.40
2009,10,09,00,12,5.40
2009,10,09,00,18,5.30
2009,10,09,00,19,5.30
2009,10,09,00,20,5.30
2009,10,09,00,21,5.20
2009,10,09,00,22,5.30
2009,10,09,00,23,5.20
2009,10,09,00,24,5.20
2009,10,09,00,25,5.20
2009,10,09,00,26,5.20
2009,10,09,00,27,5.20
2009,10,09,00,28,5.20
2009,10,09,00,29,5.20
2009,10,09,00,30,5.20
2009,10,09,00,31,5.10
2009,10,09,00,32,5.10
2009,10,09,00,33,5.10
2009,10,09,00,34,5.10
2009,10,09,00,35,5.10
2009,10,09,00,36,5.10
2009,10,09,00,37,5.10
2009,10,09,00,38,5.10
2009,10,09,00,39,5.10
2009,10,09,00,40,5.10
2009,10,09,00,41,5.10
2009,10,09,00,42,5.10
2009,10,09,00,43,5.10
2009,10,09,00,44,5.10
2009,10,09,00,45,5.10
2009,10,09,00,46,5.10
2009,10,09,00,47,5.10
2009,10,09,00,48,5.10
2009,10,09,00,49,5.00
2009,10,09,00,50,5.00
2009,10,09,00,51,5.00
2009,10,09,00,52,5.00
2009,10,09,00,53,4.90
2009,10,09,00,54,4.90
2009,10,09,00,55,4.90
2009,10,09,00,56,4.90
2009,10,09,00,57,4.90
2009,10,09,00,58,4.90
2009,10,09,00,59,4.90
2009,10,09,01,00,4.90
2009,10,09,01,01,4.90
2009,10,09,01,02,4.90
2009,10,09,01,03,4.90
2009,10,09,01,04,4.90
2009,10,09,01,05,4.90
2009,10,09,01,06,4.90
2009,10,09,01,07,4.90
2009,10,09,01,08,4.90
2009,10,09,01,09,4.90
2009,10,09,01,10,4.90
2009,10,09,01,11,4.90
2009,10,09,01,12,4.80
2009,10,09,01,13,4.80
2009,10,09,01,14,4.80
2009,10,09,01,15,4.80
2009,10,09,01,16,4.80
2009,10,09,01,17,4.80
2009,10,09,01,18,4.80
2009,10,09,01,19,4.90
2009,10,09,01,20,4.80
2009,10,09,01,21,4.80
2009,10,09,01,22,4.80
2009,10,09,01,23,4.80
2009,10,09,01,24,4.80
2009,10,09,01,25,4.80
2009,10,09,01,26,4.80
2009,10,09,01,27,4.80
2009,10,09,01,28,4.90
2009,10,09,01,29,4.80
2009,10,09,01,30,4.80
2009,10,09,01,31,4.80
2009,10,09,01,32,4.80
2009,10,09,01,33,4.80
2009,10,09,01,34,4.80
2009,10,09,01,35,4.80
2009,10,09,01,36,4.80
2009,10,09,01,37,4.80
2009,10,09,01,38,4.80
2009,10,09,01,39,4.80
2009,10,09,01,40,4.80
2009,10,09,01,41,4.70
2009,10,09,01,42,4.70
2009,10,09,01,43,4.70
2009,10,09,01,44,4.70
2009,10,09,01,45,4.70
2009,10,09,01,46,4.70
2009,10,09,01,47,4.70
2009,10,09,01,48,4.70
2009,10,09,01,49,4.70
2009,10,09,01,50,4.70
2009,10,09,01,51,4.70
2009,10,09,01,52,4.70
2009,10,09,01,53,4.60
2009,10,09,01,54,4.60
2009,10,09,01,55,4.60
2009,10,09,01,56,4.60
2009,10,09,01,57,4.50
2009,10,09,01,58,4.50
2009,10,09,01,59,4.50
2009,10,09,02,00,4.50
2009,10,09,02,01,4.40
2009,10,09,02,02,4.40
2009,10,09,02,03,4.40
2009,10,09,02,04,4.40
2009,10,09,02,05,4.40
2009,10,09,02,06,4.40
2009,10,09,02,07,4.40
2009,10,09,02,08,4.50
2009,10,09,02,09,4.50
2009,10,09,02,10,4.50
2009,10,09,02,11,4.60
2009,10,09,02,12,4.60
2009,10,09,02,13,4.60
2009,10,09,02,14,4.60
2009,10,09,02,15,4.60
2009,10,09,02,16,4.70
2009,10,09,02,17,4.70
2009,10,09,02,18,4.70
2009,10,09,02,19,4.70
2009,10,09,02,20,4.70
2009,10,09,02,21,4.70
2009,10,09,02,22,4.70
2009,10,09,02,23,4.70
2009,10,09,02,24,4.60
2009,10,09,02,25,4.60
2009,10,09,02,26,4.60
2009,10,09,02,27,4.50
2009,10,09,02,28,4.50
2009,10,09,02,29,4.50
2009,10,09,02,30,4.50
2009,10,09,02,31,4.40
2009,10,09,02,32,4.40
2009,10,09,02,33,4.40
2009,10,09,02,34,4.30
2009,10,09,02,35,4.30
2009,10,09,02,36,4.30
2009,10,09,02,37,4.30
2009,10,09,02,38,4.30
2009,10,09,02,39,4.40
2009,10,09,02,40,4.40
2009,10,09,02,41,4.40
2009,10,09,02,42,4.40
2009,10,09,02,43,4.50
2009,10,09,02,44,4.50
2009,10,09,02,45,4.50
2009,10,09,02,46,4.50
2009,10,09,02,47,4.50
2009,10,09,02,48,4.50
2009,10,09,02,49,4.40
2009,10,09,02,50,4.40
2009,10,09,02,51,4.40
2009,10,09,02,52,4.40
2009,10,09,02,53,4.30
2009,10,09,02,54,4.30
2009,10,09,02,55,4.30
2009,10,09,02,56,4.30
2009,10,09,02,57,4.30
2009,10,09,02,58,4.30
2009,10,09,02,59,4.30
2009,10,09,03,00,4.40
2009,10,09,03,01,4.30
2009,10,09,03,02,4.40
2009,10,09,03,03,4.40
2009,10,09,03,04,4.40
2009,10,09,03,05,4.40
2009,10,09,03,06,4.40
2009,10,09,03,07,4.40
2009,10,09,03,08,4.40
2009,10,09,03,09,4.40
2009,10,09,03,10,4.40
2009,10,09,03,11,4.40
2009,10,09,03,12,4.40
2009,10,09,03,13,4.40
2009,10,09,03,14,4.40
2009,10,09,03,15,4.40
2009,10,09,03,16,4.40
2009,10,09,03,17,4.40
2009,10,09,03,18,4.50
2009,10,09,03,19,4.50
2009,10,09,03,20,4.50
2009,10,09,03,21,4.60
2009,10,09,03,22,4.60
2009,10,09,03,23,4.60
2009,10,09,03,24,4.70
2009,10,09,03,25,4.70
2009,10,09,03,26,4.70
2009,10,09,03,27,4.70
2009,10,09,03,28,4.70
2009,10,09,03,29,4.70
2009,10,09,03,30,4.70
2009,10,09,03,31,4.70
2009,10,09,03,32,4.80
2009,10,09,03,33,4.80
2009,10,09,03,34,4.90
2009,10,09,03,35,5.00
2009,10,09,03,36,5.10
2009,10,09,03,37,5.10
2009,10,09,03,38,5.10
2009,10,09,03,39,5.20
2009,10,09,03,40,5.20
2009,10,09,03,41,5.30
2009,10,09,03,42,5.40
2009,10,09,03,43,5.60
2009,10,09,03,44,5.70
2009,10,09,03,45,6.00
2009,10,09,03,46,6.10
2009,10,09,03,47,6.20
2009,10,09,03,48,6.30
2009,10,09,03,49,6.40
2009,10,09,03,50,6.40
2009,10,09,03,51,6.50
2009,10,09,03,52,6.60
2009,10,09,03,53,6.60
2009,10,09,03,54,6.70
2009,10,09,03,55,6.80
2009,10,09,03,56,6.80
2009,10,09,03,57,6.90
2009,10,09,03,58,7.00
2009,10,09,03,59,7.10
2009,10,09,04,00,7.20
2009,10,09,04,01,7.30
2009,10,09,04,02,7.40
2009,10,09,04,03,7.50
2009,10,09,04,04,7.50
2009,10,09,04,05,7.60
2009,10,09,04,06,7.60
2009,10,09,04,07,7.60
2009,10,09,04,08,7.60
2009,10,09,04,09,7.70
2009,10,09,04,10,7.70
2009,10,09,04,11,7.70
2009,10,09,04,12,7.70
2009,10,09,04,13,7.70
2009,10,09,04,14,7.70
2009,10,09,04,15,7.70
2009,10,09,04,16,7.60
2009,10,09,04,17,7.60
2009,10,09,04,18,7.70
2009,10,09,04,19,7.80
2009,10,09,04,20,7.90
2009,10,09,04,21,8.00
2009,10,09,04,22,8.10
2009,10,09,04,23,8.10
2009,10,09,04,24,8.20
2009,10,09,04,25,8.20
2009,10,09,04,26,8.20
2009,10,09,04,27,8.10
2009,10,09,04,28,8.10
2009,10,09,04,29,8.10
2009,10,09,04,30,8.00
2009,10,09,04,31,8.00
2009,10,09,04,32,8.00
2009,10,09,04,33,7.90
2009,10,09,04,34,7.90
2009,10,09,04,35,7.90
2009,10,09,04,36,8.00
2009,10,09,04,37,7.90
2009,10,09,04,38,8.00
2009,10,09,04,39,8.00
2009,10,09,04,40,8.10
2009,10,09,04,41,8.20
2009,10,09,04,42,8.20
2009,10,09,04,43,8.30
2009,10,09,04,44,8.50
2009,10,09,04,45,8.60
2009,10,09,04,46,8.70
2009,10,09,04,47,8.80
2009,10,09,04,48,8.90
2009,10,09,04,49,9.00
2009,10,09,04,50,9.10
2009,10,09,04,51,9.10
2009,10,09,04,52,9.10
2009,10,09,04,53,9.10
2009,10,09,04,54,9.10
2009,10,09,04,55,9.10
2009,10,09,04,56,9.10
2009,10,09,04,57,9.10
2009,10,09,04,58,9.10
2009,10,09,04,59,9.00
2009,10,09,05,00,8.90
2009,10,09,05,01,8.80
2009,10,09,05,02,8.80
2009,10,09,05,03,8.70
2009,10,09,05,04,8.70
2009,10,09,05,05,8.70
2009,10,09,05,06,8.60
2009,10,09,05,07,8.60
2009,10,09,05,08,8.60
2009,10,09,05,09,8.60
2009,10,09,05,10,8.60
2009,10,09,05,11,8.60
2009,10,09,05,12,8.50
2009,10,09,05,13,8.50
2009,10,09,05,14,8.40
2009,10,09,05,15,8.40
2009,10,09,05,16,8.30
2009,10,09,05,17,8.30
2009,10,09,05,18,8.30
2009,10,09,05,19,8.30
2009,10,09,05,20,8.30
2009,10,09,05,21,8.40
2009,10,09,05,22,8.40
2009,10,09,05,23,8.40
2009,10,09,05,24,8.40
2009,10,09,05,25,8.50
2009,10,09,05,26,8.50
2009,10,09,05,27,8.50
2009,10,09,05,28,8.60
2009,10,09,05,29,8.60
2009,10,09,05,30,8.50
2009,10,09,05,31,8.50
2009,10,09,05,32,8.50
2009,10,09,05,33,8.50
2009,10,09,05,34,8.40
2009,10,09,05,35,8.40
2009,10,09,05,36,8.40
2009,10,09,05,37,8.40
2009,10,09,05,38,8.40
2009,10,09,05,39,8.40
2009,10,09,05,40,8.40
2009,10,09,05,41,8.30
2009,10,09,05,42,8.30
2009,10,09,05,43,8.20
2009,10,09,05,44,8.20
2009,10,09,05,45,8.20
2009,10,09,05,46,8.10
2009,10,09,05,47,8.10
2009,10,09,05,48,8.10
2009,10,09,05,49,8.10
2009,10,09,05,50,8.00
2009,10,09,05,51,8.00
2009,10,09,05,52,8.00
2009,10,09,05,53,7.90
2009,10,09,05,54,7.90
2009,10,09,05,55,7.90
2009,10,09,05,56,7.90
2009,10,09,05,57,7.90
2009,10,09,05,58,7.90
2009,10,09,05,59,7.90
2009,10,09,06,00,7.90
2009,10,09,06,01,7.90
2009,10,09,06,02,7.90
2009,10,09,06,03,7.90
2009,10,09,06,04,7.90
2009,10,09,06,05,7.80
2009,10,09,06,06,7.90
2009,10,09,06,07,7.90
2009,10,09,06,08,7.80
2009,10,09,06,09,7.80
2009,10,09,06,10,7.80
2009,10,09,06,11,7.80
2009,10,09,06,12,7.80
2009,10,09,06,13,7.80
2009,10,09,06,14,7.80
2009,10,09,06,15,7.80
2009,10,09,06,16,7.80
2009,10,09,06,17,7.80
2009,10,09,06,18,7.80
2009,10,09,06,19,7.80
2009,10,09,06,20,7.80
2009,10,09,06,21,7.80
2009,10,09,06,22,7.80
2009,10,09,06,23,7.80
2009,10,09,06,24,7.80
2009,10,09,06,25,7.80
2009,10,09,06,26,7.70
2009,10,09,06,27,7.70
2009,10,09,06,28,7.60
2009,10,09,06,29,7.60
2009,10,09,06,30,7.50
2009,10,09,06,31,7.50
2009,10,09,06,32,7.50
2009,10,09,06,33,7.40
2009,10,09,06,34,7.40
2009,10,09,06,35,7.40
2009,10,09,06,36,7.40
2009,10,09,06,37,7.40
2009,10,09,06,38,7.50
2009,10,09,06,39,7.50
2009,10,09,06,40,7.50
2009,10,09,06,41,7.50
2009,10,09,06,42,7.50
2009,10,09,06,43,7.50
2009,10,09,06,44,7.50
2009,10,09,06,45,7.50
2009,10,09,06,46,7.50
2009,10,09,06,47,7.50
2009,10,09,06,48,7.40
2009,10,09,06,49,7.40
2009,10,09,06,50,7.40
2009,10,09,06,51,7.30
2009,10,09,06,52,7.20
2009,10,09,06,53,7.20
2009,10,09,06,54,7.10
2009,10,09,06,55,6.90
2009,10,09,06,56,6.70
2009,10,09,06,57,6.60
2009,10,09,06,58,6.50
2009,10,09,06,59,6.30
2009,10,09,07,00,6.20
2009,10,09,07,01,6.10
2009,10,09,07,02,6.00
2009,10,09,07,03,5.90
2009,10,09,07,04,5.80
2009,10,09,07,05,5.80
2009,10,09,07,06,5.70
2009,10,09,07,07,5.70
2009,10,09,07,08,5.70
2009,10,09,07,09,5.60
2009,10,09,07,10,5.60
2009,10,09,07,11,5.60
2009,10,09,07,12,5.60
2009,10,09,07,13,5.60
2009,10,09,07,14,5.50
2009,10,09,07,15,5.50
2009,10,09,07,16,5.40
2009,10,09,07,17,5.40
2009,10,09,07,18,5.40
2009,10,09,07,19,5.30
2009,10,09,07,20,5.30
2009,10,09,07,21,5.30
2009,10,09,07,22,5.30
2009,10,09,07,23,5.20
2009,10,09,07,24,5.20
2009,10,09,07,25,5.20
2009,10,09,07,26,5.20
2009,10,09,07,27,5.10
2009,10,09,07,28,5.10
2009,10,09,07,29,5.10
2009,10,09,07,30,5.00
2009,10,09,07,31,5.00
2009,10,09,07,32,5.00
2009,10,09,07,33,5.00
2009,10,09,07,34,5.00
2009,10,09,07,35,4.90
2009,10,09,07,36,5.00
2009,10,09,07,37,4.90
2009,10,09,07,38,4.90
2009,10,09,07,39,5.00
2009,10,09,07,40,5.00
2009,10,09,07,41,5.10
2009,10,09,07,42,5.10
2009,10,09,07,43,5.10
2009,10,09,07,44,5.10
2009,10,09,07,45,5.10
2009,10,09,07,46,5.10
2009,10,09,07,47,5.10
2009,10,09,07,48,5.10
2009,10,09,07,49,5.10
2009,10,09,07,50,5.10
2009,10,09,07,51,5.10
2009,10,09,07,52,5.10
2009,10,09,07,53,5.10
2009,10,09,07,54,5.10
2009,10,09,07,55,5.10
2009,10,09,07,56,5.10
2009,10,09,07,57,5.10
2009,10,09,07,58,5.20
2009,10,09,07,59,5.20
2009,10,09,08,00,5.20
2009,10,09,08,01,5.20
2009,10,09,08,02,5.30
2009,10,09,08,03,5.30
2009,10,09,08,04,5.40
2009,10,09,08,05,5.40
2009,10,09,08,06,5.40
2009,10,09,08,07,5.40
2009,10,09,08,08,5.50
2009,10,09,08,09,5.50
2009,10,09,08,10,5.50
2009,10,09,08,11,5.60
2009,10,09,08,12,5.60
2009,10,09,08,13,5.60
2009,10,09,08,14,5.60
2009,10,09,08,15,5.70
2009,10,09,08,16,5.70
2009,10,09,08,17,5.70
2009,10,09,08,18,5.70
2009,10,09,08,19,5.70
2009,10,09,08,20,5.80
2009,10,09,08,21,5.80
2009,10,09,08,22,5.80
2009,10,09,08,23,5.80
2009,10,09,08,24,5.80
2009,10,09,08,25,5.90
2009,10,09,08,26,5.90
2009,10,09,08,27,5.90
2009,10,09,08,28,5.90
2009,10,09,08,29,5.90
2009,10,09,08,30,6.00
2009,10,09,08,31,6.00
2009,10,09,08,32,6.10
2009,10,09,08,33,6.10
2009,10,09,08,34,6.20
2009,10,09,08,35,6.20
2009,10,09,08,36,6.20
2009,10,09,08,37,6.20
2009,10,09,08,38,6.20
2009,10,09,08,39,6.20
2009,10,09,08,40,6.30
2009,10,09,08,41,6.30
2009,10,09,08,42,6.30
2009,10,09,08,43,6.30
2009,10,09,08,44,6.40
2009,10,09,08,45,6.40
2009,10,09,08,46,6.40
2009,10,09,08,47,6.40
2009,10,09,08,48,6.50
2009,10,09,08,49,6.50
2009,10,09,08,50,6.50
2009,10,09,08,51,6.60
2009,10,09,08,52,6.60
2009,10,09,08,53,6.60
2009,10,09,08,54,6.60
2009,10,09,08,55,6.70
2009,10,09,08,56,6.70
2009,10,09,08,57,6.70
2009,10,09,08,58,6.80
2009,10,09,08,59,6.80
2009,10,09,09,00,6.80
2009,10,09,09,01,6.80
2009,10,09,09,02,6.90
2009,10,09,09,03,6.90
2009,10,09,09,04,6.90
2009,10,09,09,05,7.00
2009,10,09,09,06,7.00
2009,10,09,09,07,7.00
2009,10,09,09,08,7.10
2009,10,09,09,09,7.10
2009,10,09,09,10,7.10
2009,10,09,09,11,7.20
2009,10,09,09,12,7.20
2009,10,09,09,13,7.20
2009,10,09,09,14,7.20
2009,10,09,09,15,7.30
2009,10,09,09,16,7.30
2009,10,09,09,17,7.30
2009,10,09,09,18,7.40
2009,10,09,09,19,7.40
2009,10,09,09,20,7.50
2009,10,09,09,21,7.50
2009,10,09,09,22,7.60
2009,10,09,09,23,7.60
2009,10,09,09,24,7.70
2009,10,09,09,25,7.70
2009,10,09,09,26,7.80
2009,10,09,09,27,7.80
2009,10,09,09,28,7.90
2009,10,09,09,29,7.90
2009,10,09,09,30,8.00
2009,10,09,09,31,8.00
2009,10,09,09,32,8.10
2009,10,09,09,33,8.10
2009,10,09,09,34,8.20
2009,10,09,09,35,8.20
2009,10,09,09,36,8.30
2009,10,09,09,37,8.30
2009,10,09,09,38,8.30
2009,10,09,09,39,8.40
2009,10,09,09,40,8.40
2009,10,09,09,41,8.50
2009,10,09,09,42,8.60
2009,10,09,09,43,8.70
2009,10,09,09,44,8.80
2009,10,09,09,45,8.90
2009,10,09,09,46,9.00
2009,10,09,09,47,9.20
2009,10,09,09,48,9.30
2009,10,09,09,49,9.50
2009,10,09,09,50,9.80
2009,10,09,09,51,10.00
2009,10,09,09,52,10.30
2009,10,09,09,53,10.50
2009,10,09,09,54,10.70
2009,10,09,09,55,10.90
2009,10,09,09,56,11.10
2009,10,09,09,57,11.30
2009,10,09,09,58,11.40
2009,10,09,09,59,11.60
2009,10,09,10,00,11.70
2009,10,09,10,01,11.80
2009,10,09,10,02,11.80
2009,10,09,10,03,11.90
2009,10,09,10,04,12.00
2009,10,09,10,05,12.10
2009,10,09,10,06,12.10
2009,10,09,10,07,12.20
2009,10,09,10,08,12.30
2009,10,09,10,09,12.30
2009,10,09,10,10,12.30
2009,10,09,10,11,12.30
2009,10,09,10,12,12.30
2009,10,09,10,13,12.30
2009,10,09,10,14,12.30
2009,10,09,10,15,12.30
2009,10,09,10,16,12.30
2009,10,09,10,17,12.30
2009,10,09,10,18,12.30
2009,10,09,10,19,12.40
2009,10,09,10,20,12.40
2009,10,09,10,21,12.40
2009,10,09,10,22,12.30
2009,10,09,10,23,12.30
2009,10,09,10,24,12.30
2009,10,09,10,25,12.30
2009,10,09,10,26,12.30
2009,10,09,10,27,12.30
2009,10,09,10,28,12.30
2009,10,09,10,29,12.40
2009,10,09,10,30,12.40
2009,10,09,10,31,12.40
2009,10,09,10,32,12.50
2009,10,09,10,33,12.50
2009,10,09,10,34,12.60
2009,10,09,10,35,12.70
2009,10,09,10,36,12.70
2009,10,09,10,37,12.80
2009,10,09,10,38,12.80
2009,10,09,10,39,12.80
2009,10,09,10,40,12.80
2009,10,09,10,41,12.80
2009,10,09,10,42,12.80
2009,10,09,10,43,12.80
2009,10,09,10,44,12.80
2009,10,09,10,45,12.80
2009,10,09,10,46,12.80
2009,10,09,10,47,12.90
2009,10,09,10,48,12.90
2009,10,09,10,49,12.90
2009,10,09,10,50,12.90
2009,10,09,10,51,12.90
2009,10,09,10,52,12.90
2009,10,09,10,53,12.90
2009,10,09,10,54,12.90
2009,10,09,10,55,12.90
2009,10,09,10,56,12.90
2009,10,09,10,57,12.90
2009,10,09,10,58,12.90
2009,10,09,10,59,12.90
2009,10,09,11,00,13.00
2009,10,09,11,01,13.00
2009,10,09,11,02,13.00
2009,10,09,11,03,13.00
2009,10,09,11,04,13.10
2009,10,09,11,05,13.10
2009,10,09,11,06,13.10
2009,10,09,11,07,13.10
2009,10,09,11,08,13.10
2009,10,09,11,09,13.10
2009,10,09,11,10,13.10
2009,10,09,11,11,13.10
2009,10,09,11,12,13.20
2009,10,09,11,13,13.20
2009,10,09,11,14,13.20
2009,10,09,11,15,13.30
2009,10,09,11,16,13.30
2009,10,09,11,17,13.30
2009,10,09,11,18,13.40
2009,10,09,11,19,13.40
2009,10,09,11,20,13.40
2009,10,09,11,21,13.40
2009,10,09,11,22,13.40
2009,10,09,11,23,13.40
2009,10,09,11,24,13.40
2009,10,09,11,25,13.40
2009,10,09,11,26,13.40
2009,10,09,11,27,13.40
2009,10,09,11,28,13.40
2009,10,09,11,29,13.40
2009,10,09,11,30,13.40
2009,10,09,11,31,13.50
2009,10,09,11,32,13.50
2009,10,09,11,33,13.60
2009,10,09,11,34,13.70
2009,10,09,11,35,13.80
2009,10,09,11,36,13.80
2009,10,09,11,37,13.90
2009,10,09,11,38,13.90
2009,10,09,11,39,14.00
2009,10,09,11,40,14.10
2009,10,09,11,41,14.20
2009,10,09,11,42,14.30
2009,10,09,11,43,14.30
2009,10,09,11,44,14.40
2009,10,09,11,45,14.50
2009,10,09,11,46,14.50
2009,10,09,11,47,14.50
2009,10,09,11,48,14.40
2009,10,09,11,49,14.40
2009,10,09,11,50,14.40
2009,10,09,11,51,14.40
2009,10,09,11,52,14.40
2009,10,09,11,53,14.30
2009,10,09,11,54,14.30
2009,10,09,11,55,14.40
2009,10,09,11,56,14.40
2009,10,09,11,57,14.40
2009,10,09,11,58,14.40
2009,10,09,11,59,14.40
2009,10,09,12,00,14.50
2009,10,09,12,01,14.50
2009,10,09,12,02,14.50
2009,10,09,12,03,14.40
2009,10,09,12,04,14.50
2009,10,09,12,05,14.50
2009,10,09,12,06,14.60
2009,10,09,12,07,14.70
2009,10,09,12,08,14.70
2009,10,09,12,09,14.70
2009,10,09,12,10,14.60
2009,10,09,12,11,14.60
2009,10,09,12,12,14.60
2009,10,09,12,13,14.60
2009,10,09,12,14,14.50
2009,10,09,12,15,14.50
2009,10,09,12,16,14.50
2009,10,09,12,17,14.40
2009,10,09,12,18,14.30
2009,10,09,12,19,14.30
2009,10,09,12,20,14.20
2009,10,09,12,21,14.20
2009,10,09,12,22,14.10
2009,10,09,12,23,14.10
2009,10,09,12,24,14.10
2009,10,09,12,25,14.10
2009,10,09,12,26,14.10
2009,10,09,12,27,14.10
2009,10,09,12,28,14.10
2009,10,09,12,29,14.10
2009,10,09,12,30,14.10
2009,10,09,12,31,14.00
2009,10,09,12,32,14.00
2009,10,09,12,33,14.00
2009,10,09,12,34,14.00
2009,10,09,12,35,14.00
2009,10,09,12,36,14.10
2009,10,09,12,37,14.10
2009,10,09,12,38,14.20
2009,10,09,12,39,14.30
2009,10,09,12,40,14.40
2009,10,09,12,41,14.50
2009,10,09,12,42,14.60
2009,10,09,12,43,14.70
2009,10,09,12,44,14.70
2009,10,09,12,45,14.60
2009,10,09,12,46,14.60
2009,10,09,12,47,14.60
2009,10,09,12,48,14.50
2009,10,09,12,49,14.50
2009,10,09,12,50,14.50
2009,10,09,12,51,14.60
2009,10,09,12,52,14.60
2009,10,09,12,53,14.60
2009,10,09,12,54,14.70
2009,10,09,12,55,14.80
2009,10,09,12,56,14.90
2009,10,09,12,57,14.90
2009,10,09,12,58,15.00
2009,10,09,12,59,15.00
2009,10,09,13,00,15.00
2009,10,09,13,01,15.00
2009,10,09,13,02,15.20
2009,10,09,13,03,15.30
2009,10,09,13,04,15.30
2009,10,09,13,05,15.30
2009,10,09,13,06,15.30
2009,10,09,13,07,15.20
2009,10,09,13,08,15.20
2009,10,09,13,09,15.20
2009,10,09,13,10,15.10
2009,10,09,13,11,15.20
2009,10,09,13,12,15.20
2009,10,09,13,13,15.30
2009,10,09,13,14,15.30
2009,10,09,13,15,15.30
2009,10,09,13,16,15.40
2009,10,09,13,17,15.50
2009,10,09,13,18,15.60
2009,10,09,13,19,15.50
2009,10,09,13,20,15.50
2009,10,09,13,21,15.50
2009,10,09,13,22,15.50
2009,10,09,13,23,15.60
2009,10,09,13,24,15.60
2009,10,09,13,25,15.60
2009,10,09,13,26,15.70
2009,10,09,13,27,15.80
2009,10,09,13,28,15.80
2009,10,09,13,29,15.90
2009,10,09,13,30,15.90
2009,10,09,13,31,16.00
2009,10,09,13,32,16.10
2009,10,09,13,33,16.10
2009,10,09,13,34,16.10
2009,10,09,13,35,16.00
2009,10,09,13,36,16.00
2009,10,09,13,37,16.00
2009,10,09,13,38,16.00
2009,10,09,13,39,16.00
2009,10,09,13,40,16.00
2009,10,09,13,41,16.00
2009,10,09,13,42,15.90
2009,10,09,13,43,15.90
2009,10,09,13,44,15.80
2009,10,09,13,45,15.70
2009,10,09,13,46,15.70
2009,10,09,13,47,15.60
2009,10,09,13,48,15.60
2009,10,09,13,49,15.60
2009,10,09,13,50,15.60
2009,10,09,13,51,15.70
2009,10,09,13,52,15.70
2009,10,09,13,53,15.80
2009,10,09,13,54,15.80
2009,10,09,13,55,15.90
2009,10,09,13,56,16.00
2009,10,09,13,57,16.00
2009,10,09,13,58,16.10
2009,10,09,13,59,16.10
2009,10,09,14,00,16.00
2009,10,09,14,01,16.00
2009,10,09,14,02,16.00
2009,10,09,14,03,16.00
2009,10,09,14,04,16.10
2009,10,09,14,05,16.20
2009,10,09,14,06,16.20
2009,10,09,14,07,16.10
2009,10,09,14,08,16.10
2009,10,09,14,09,16.20
2009,10,09,14,10,16.30
2009,10,09,14,11,16.30
2009,10,09,14,12,16.30
2009,10,09,14,13,16.30
2009,10,09,14,14,16.30
2009,10,09,14,15,16.20
2009,10,09,14,16,16.20
2009,10,09,14,17,16.10
2009,10,09,14,18,16.10
2009,10,09,14,19,16.10
2009,10,09,14,20,16.00
2009,10,09,14,21,16.00
2009,10,09,14,22,15.90
2009,10,09,14,23,15.90
2009,10,09,14,24,15.90
2009,10,09,14,25,15.80
2009,10,09,14,26,15.80
2009,10,09,14,27,15.80
2009,10,09,14,28,15.90
2009,10,09,14,29,16.00
2009,10,09,14,30,16.10
2009,10,09,14,31,16.10
2009,10,09,14,32,16.20
2009,10,09,14,33,16.30
2009,10,09,14,34,16.30
2009,10,09,14,35,16.30
2009,10,09,14,36,16.30
2009,10,09,14,37,16.40
2009,10,09,14,38,16.40
2009,10,09,14,39,16.50
2009,10,09,14,40,16.50
2009,10,09,14,41,16.50
2009,10,09,14,42,16.50
2009,10,09,14,43,16.40
2009,10,09,14,44,16.40
2009,10,09,14,45,16.40
2009,10,09,14,46,16.40
2009,10,09,14,47,16.40
2009,10,09,14,48,16.30
2009,10,09,14,49,16.30
2009,10,09,14,50,16.20
2009,10,09,14,51,16.30
2009,10,09,14,52,16.30
2009,10,09,14,53,16.30
2009,10,09,14,54,16.30
2009,10,09,14,55,16.30
2009,10,09,14,56,16.30
2009,10,09,14,57,16.30
2009,10,09,14,58,16.20
2009,10,09,14,59,16.20
2009,10,09,15,00,16.20
2009,10,09,15,01,16.20
2009,10,09,15,02,16.20
2009,10,09,15,03,16.20
2009,10,09,15,04,16.20
2009,10,09,15,05,16.20
2009,10,09,15,06,16.30
2009,10,09,15,07,16.30
2009,10,09,15,08,16.30
2009,10,09,15,09,16.30
2009,10,09,15,10,16.30
2009,10,09,15,11,16.30
2009,10,09,15,12,16.40
2009,10,09,15,13,16.40
2009,10,09,15,14,16.40
2009,10,09,15,15,16.40
2009,10,09,15,16,16.30
2009,10,09,15,17,16.30
2009,10,09,15,18,16.30
2009,10,09,15,19,16.20
2009,10,09,15,20,16.20
2009,10,09,15,21,16.20
2009,10,09,15,22,16.20
2009,10,09,15,23,16.20
2009,10,09,15,24,16.10
2009,10,09,15,25,16.00
2009,10,09,15,26,16.00
2009,10,09,15,27,16.00
2009,10,09,15,28,16.00
2009,10,09,15,29,16.10
2009,10,09,15,30,16.20
2009,10,09,15,31,16.20
2009,10,09,15,32,16.20
2009,10,09,15,33,16.10
2009,10,09,15,34,16.10
2009,10,09,15,35,16.00
2009,10,09,15,36,16.00
2009,10,09,15,37,16.10
2009,10,09,15,38,16.00
2009,10,09,15,39,16.00
2009,10,09,15,40,16.00
2009,10,09,15,41,16.00
2009,10,09,15,42,16.00
2009,10,09,15,43,16.10
2009,10,09,15,44,16.10
2009,10,09,15,45,16.10
2009,10,09,15,46,16.10
2009,10,09,15,47,16.10
2009,10,09,15,48,16.10
2009,10,09,15,49,16.10
2009,10,09,15,50,16.20
2009,10,09,15,51,16.20
2009,10,09,15,52,16.20
2009,10,09,15,53,16.30
2009,10,09,15,54,16.20
2009,10,09,15,55,16.20
2009,10,09,15,56,16.20
2009,10,09,15,57,16.20
2009,10,09,15,58,16.20
2009,10,09,15,59,16.10
2009,10,09,16,00,16.00
2009,10,09,16,01,16.00
2009,10,09,16,02,15.90
2009,10,09,16,03,15.90
2009,10,09,16,04,15.80
2009,10,09,16,05,15.80
2009,10,09,16,06,15.90
2009,10,09,16,07,15.90
2009,10,09,16,08,15.90
2009,10,09,16,09,15.90
2009,10,09,16,10,15.90
2009,10,09,16,11,15.80
2009,10,09,16,12,15.80
2009,10,09,16,13,15.80
2009,10,09,16,14,15.80
2009,10,09,16,15,15.80
2009,10,09,16,16,15.90
2009,10,09,16,17,15.90
2009,10,09,16,18,15.90
2009,10,09,16,19,16.00
2009,10,09,16,20,16.10
2009,10,09,16,21,16.20
2009,10,09,16,22,16.20
2009,10,09,16,23,16.30
2009,10,09,16,24,16.20
2009,10,09,16,25,16.20
2009,10,09,16,26,16.10
2009,10,09,16,27,16.00
2009,10,09,16,28,16.00
2009,10,09,16,29,16.00
2009,10,09,16,30,16.00
2009,10,09,16,31,16.10
2009,10,09,16,32,16.10
2009,10,09,16,33,16.10
2009,10,09,16,34,16.10
2009,10,09,16,35,16.10
2009,10,09,16,36,16.00
2009,10,09,16,37,15.90
2009,10,09,16,38,15.90
2009,10,09,16,39,15.90
2009,10,09,16,40,15.80
2009,10,09,16,41,15.90
2009,10,09,16,42,15.90
2009,10,09,16,43,15.90
2009,10,09,16,44,16.00
2009,10,09,16,45,16.10
2009,10,09,16,46,16.10
2009,10,09,16,47,16.10
2009,10,09,16,48,16.00
2009,10,09,16,49,16.00
2009,10,09,16,50,15.90
2009,10,09,16,51,15.90
2009,10,09,16,52,15.90
2009,10,09,16,53,15.80
2009,10,09,16,54,15.80
2009,10,09,16,55,15.80
2009,10,09,16,56,15.70
2009,10,09,16,57,15.60
2009,10,09,16,58,15.60
2009,10,09,16,59,15.60
2009,10,09,17,00,15.60
2009,10,09,17,01,15.60
2009,10,09,17,02,15.60
2009,10,09,17,03,15.50
2009,10,09,17,04,15.40
2009,10,09,17,05,15.30
2009,10,09,17,06,15.30
2009,10,09,17,07,15.30
2009,10,09,17,08,15.30
2009,10,09,17,09,15.20
2009,10,09,17,10,15.20
2009,10,09,17,11,15.20
2009,10,09,17,12,15.20
2009,10,09,17,13,15.10
2009,10,09,17,14,15.10
2009,10,09,17,15,15.20
2009,10,09,17,16,15.20
2009,10,09,17,17,15.20
2009,10,09,17,18,15.20
2009,10,09,17,19,15.20
2009,10,09,17,20,15.10
2009,10,09,17,21,15.00
2009,10,09,17,22,15.00
2009,10,09,17,23,15.00
2009,10,09,17,24,15.00
2009,10,09,17,25,15.00
2009,10,09,17,26,15.00
2009,10,09,17,27,15.00
2009,10,09,17,28,15.00
2009,10,09,17,29,15.00
2009,10,09,17,30,15.00
2009,10,09,17,31,15.00
2009,10,09,17,32,14.90
2009,10,09,17,33,14.90
2009,10,09,17,34,14.90
2009,10,09,17,35,14.80
2009,10,09,17,36,14.80
2009,10,09,17,37,14.70
2009,10,09,17,38,14.70
2009,10,09,17,39,14.60
2009,10,09,17,40,14.60
2009,10,09,17,41,14.50
2009,10,09,17,42,14.40
2009,10,09,17,43,14.40
2009,10,09,17,44,14.30
2009,10,09,17,45,14.30
2009,10,09,17,46,14.20
2009,10,09,17,47,14.20
2009,10,09,17,48,14.20
2009,10,09,17,49,14.10